• Em Portugal
  • Lista de países
  • Para 7 dias
  • Temperatura da água
  • Mapas de satélite
  • Mapa do tempo
  • Widgets de tempo
  • user-avatar
    Iniciar Sessão

    Previsão horária em Wavre

    Hoje, 16 Outubro, Terça-feira

    Tempo Temperatura Precipitação Vento Pressão Humidade
    00:00 +16°C° 0 mm 1 m/s 756 mmHg 69%
    01:00 +16°C° 0 mm 1 m/s 756 mmHg 69%
    02:00 +16°C° 0 mm 1 m/s 756 mmHg 69%
    03:00 +16°C° 0 mm 1 m/s 757 mmHg 69%
    04:00 +15°C° 0 mm 1 m/s 757 mmHg 69%
    05:00 +15°C° 0 mm 1 m/s 757 mmHg 69%
    06:00 +15°C° 0 mm 1 m/s 757 mmHg 69%
    07:00 +18°C° 0 mm 1 m/s 757 mmHg 65%
    08:00 +20°C° 0 mm 1 m/s 757 mmHg 61%
    09:00 +21°C° 0 mm 1 m/s 757 mmHg 56%
    10:00 +23°C° 0 mm 1 m/s 758 mmHg 52%
    11:00 +24°C° 0 mm 1 m/s 758 mmHg 49%
    12:00 +26°C° 0 mm 2 m/s 758 mmHg 45%
    13:00 +26°C° 0 mm 1 m/s 758 mmHg 47%
    14:00 +26°C° 0 mm 1 m/s 757 mmHg 48%
    15:00 +26°C° 0 mm 1 m/s 757 mmHg 50%
    16:00 +24°C° 0 mm 1 m/s 757 mmHg 55%
    17:00 +21°C° 0 mm 1 m/s 757 mmHg 61%
    18:00 +19°C° 0 mm 1 m/s 757 mmHg 66%
    19:00 +19°C° 0 mm 1 m/s 758 mmHg 68%
    20:00 +18°C° 0 mm 1 m/s 758 mmHg 70%
    21:00 +17°C° 0 mm 2 m/s 758 mmHg 72%
    22:00 +16°C° 0 mm 2 m/s 758 mmHg 73%
    23:00 +16°C° 0 mm 2 m/s 758 mmHg 74%

    Amanhã, 17 Outubro, Quarta-feira

    Tempo Temperatura Precipitação Vento Pressão Humidade
    00:00 +15°C° 0 mm 2 m/s 758 mmHg 75%
    01:00 +15°C° 0 mm 2 m/s 758 mmHg 77%
    02:00 +15°C° 0 mm 1 m/s 758 mmHg 78%
    03:00 +14°C° 0 mm 1 m/s 758 mmHg 79%
    04:00 +14°C° 0 mm 1 m/s 758 mmHg 81%
    05:00 +14°C° 0 mm 1 m/s 758 mmHg 82%
    06:00 +13°C° 0 mm 1 m/s 758 mmHg 84%
    07:00 +15°C° 0 mm 1 m/s 758 mmHg 78%
    08:00 +16°C° 0 mm 1 m/s 758 mmHg 73%
    09:00 +19°C° 0 mm 1 m/s 758 mmHg 68%
    10:00 +20°C° 0 mm 1 m/s 758 mmHg 64%
    11:00 +22°C° 0 mm 1 m/s 758 mmHg 61%
    12:00 +23°C° 0 mm 1 m/s 758 mmHg 57%
    13:00 +23°C° 0 mm 1 m/s 758 mmHg 58%
    14:00 +22°C° 0 mm 1 m/s 758 mmHg 60%
    15:00 +21°C° 0 mm 2 m/s 757 mmHg 61%
    16:00 +20°C° 0 mm 2 m/s 758 mmHg 68%
    17:00 +18°C° 0 mm 2 m/s 758 mmHg 74%
    18:00 +17°C° 0 mm 2 m/s 758 mmHg 81%
    19:00 +16°C° 0 mm 2 m/s 758 mmHg 84%
    20:00 +15°C° 0 mm 2 m/s 759 mmHg 87%
    21:00 +15°C° 0 mm 2 m/s 759 mmHg 90%
    22:00 +14°C° 0 mm 2 m/s 759 mmHg 91%
    23:00 +14°C° 0 mm 2 m/s 759 mmHg 92%

    Depois de amanhã, 18 Outubro, Quinta-feira

    Tempo Temperatura Precipitação Vento Pressão Humidade
    00:00 +13°C° 0 mm 2 m/s 759 mmHg 94%
    01:00 +13°C° 0 mm 2 m/s 759 mmHg 94%
    02:00 +13°C° 0 mm 2 m/s 759 mmHg 94%
    03:00 +13°C° 0 mm 2 m/s 759 mmHg 94%
    04:00 +13°C° 0 mm 2 m/s 759 mmHg 95%
    05:00 +13°C° 0 mm 2 m/s 759 mmHg 95%
    06:00 +12°C° 0 mm 2 m/s 759 mmHg 95%
    07:00 +14°C° 0 mm 2 m/s 760 mmHg 92%
    08:00 +15°C° 0 mm 2 m/s 760 mmHg 88%
    09:00 +16°C° 0 mm 3 m/s 760 mmHg 84%
    10:00 +16°C° 0 mm 3 m/s 760 mmHg 81%
    11:00 +17°C° 0 mm 3 m/s 760 mmHg 77%
    12:00 +18°C° 0 mm 3 m/s 760 mmHg 73%
    13:00 +18°C° 0 mm 3 m/s 760 mmHg 73%
    14:00 +18°C° 0 mm 3 m/s 760 mmHg 73%
    15:00 +18°C° 0 mm 3 m/s 760 mmHg 73%
    16:00 +18°C° 0 mm 3 m/s 760 mmHg 76%
    17:00 +17°C° 0 mm 3 m/s 760 mmHg 79%
    18:00 +16°C° 0 mm 3 m/s 761 mmHg 82%
    19:00 +16°C° 0 mm 3 m/s 761 mmHg 84%
    20:00 +14°C° 0 mm 3 m/s 761 mmHg 85%
    21:00 +14°C° 0 mm 3 m/s 761 mmHg 87%
    22:00 +13°C° 0 mm 3 m/s 761 mmHg 89%
    23:00 +13°C° 0 mm 3 m/s 761 mmHg 92%

    19 Outubro, Sexta-feira

    Tempo Temperatura Precipitação Vento Pressão Humidade
    00:00 +12°C° 0 mm 3 m/s 761 mmHg 94%
    01:00 +11°C° 0 mm 3 m/s 761 mmHg 95%
    02:00 +12°C° 0 mm 2 m/s 761 mmHg 95%
    03:00 +10°C° 0 mm 2 m/s 761 mmHg 95%
    04:00 +12°C° 0 mm 2 m/s 761 mmHg 95%
    05:00 +12°C° 0 mm 2 m/s 761 mmHg 94%
    06:00 +12°C° 0 mm 2 m/s 761 mmHg 93%
    07:00 +13°C° 0 mm 2 m/s 761 mmHg 90%
    08:00 +14°C° 0 mm 2 m/s 762 mmHg 87%
    09:00 +14°C° 0 mm 2 m/s 762 mmHg 84%
    10:00 +15°C° 0 mm 2 m/s 762 mmHg 80%
    11:00 +16°C° 0 mm 2 m/s 762 mmHg 77%
    12:00 +17°C° 0 mm 2 m/s 762 mmHg 73%
    13:00 +18°C° 0 mm 2 m/s 762 mmHg 73%
    14:00 +18°C° 0 mm 2 m/s 761 mmHg 73%
    15:00 +18°C° 0 mm 2 m/s 761 mmHg 73%
    16:00 +17°C° 0 mm 2 m/s 762 mmHg 77%
    17:00 +16°C° 0 mm 2 m/s 762 mmHg 80%
    18:00 +15°C° 0 mm 2 m/s 762 mmHg 83%
    19:00 +14°C° 0 mm 2 m/s 763 mmHg 86%
    20:00 +13°C° 0 mm 2 m/s 763 mmHg 89%
    21:00 +12°C° 0 mm 2 m/s 763 mmHg 91%
    22:00 +12°C° 0 mm 2 m/s 763 mmHg 91%
    23:00 +12°C° 0 mm 2 m/s 764 mmHg 91%

    20 Outubro, Sábado

    Tempo Temperatura Precipitação Vento Pressão Humidade
    00:00 +12°C° 0 mm 2 m/s 764 mmHg 90%
    01:00 +10°C° 0 mm 2 m/s 764 mmHg 91%
    02:00 +10°C° 0 mm 2 m/s 764 mmHg 91%
    03:00 +9°C° 0 mm 2 m/s 764 mmHg 91%
    04:00 +9°C° 0 mm 2 m/s 765 mmHg 91%
    05:00 +8°C° 0 mm 2 m/s 765 mmHg 91%
    06:00 +8°C° 0 mm 2 m/s 765 mmHg 91%
    07:00 +9°C° 0 mm 2 m/s 766 mmHg 85%
    08:00 +12°C° 0 mm 2 m/s 766 mmHg 78%
    09:00 +13°C° 0 mm 2 m/s 766 mmHg 71%
    10:00 +14°C° 0 mm 2 m/s 766 mmHg 66%
    11:00 +15°C° 0 mm 2 m/s 766 mmHg 61%
    12:00 +17°C° 0 mm 3 m/s 766 mmHg 56%
    13:00 +16°C° 0 mm 3 m/s 766 mmHg 58%
    14:00 +16°C° 0 mm 3 m/s 766 mmHg 60%
    15:00 +16°C° 0 mm 3 m/s 766 mmHg 62%
    16:00 +14°C° 0 mm 3 m/s 766 mmHg 68%
    17:00 +13°C° 0 mm 2 m/s 766 mmHg 74%
    18:00 +12°C° 0 mm 2 m/s 767 mmHg 80%
    19:00 +10°C° 0 mm 2 m/s 767 mmHg 82%
    20:00 +11°C° 0 mm 1 m/s 767 mmHg 85%
    21:00 +10°C° 0 mm 1 m/s 767 mmHg 88%
    22:00 +10°C° 0 mm 1 m/s 767 mmHg 89%
    23:00 +9°C° 0 mm 1 m/s 767 mmHg 89%

    21 Outubro, Domingo

    Tempo Temperatura Precipitação Vento Pressão Humidade
    00:00 +8°C° 0 mm 0 m/s 767 mmHg 90%
    01:00 +8°C° 0 mm 0 m/s 767 mmHg 90%
    02:00 +7°C° 0 mm 0 m/s 767 mmHg 91%
    03:00 +7°C° 0 mm 0 m/s 767 mmHg 91%
    04:00 +7°C° 0 mm 0 m/s 767 mmHg 91%
    05:00 +7°C° 0 mm 0 m/s 767 mmHg 91%
    06:00 +7°C° 0 mm 0 m/s 767 mmHg 92%
    07:00 +8°C° 0 mm 0 m/s 767 mmHg 86%
    08:00 +10°C° 0 mm 0 m/s 767 mmHg 80%
    09:00 +12°C° 0 mm 0 m/s 767 mmHg 75%
    10:00 +14°C° 0 mm 1 m/s 766 mmHg 69%
    11:00 +15°C° 0 mm 1 m/s 766 mmHg 64%
    12:00 +16°C° 0 mm 1 m/s 766 mmHg 58%
    13:00 +16°C° 0 mm 1 m/s 765 mmHg 59%
    14:00 +16°C° 0 mm 1 m/s 765 mmHg 60%
    15:00 +16°C° 0 mm 2 m/s 765 mmHg 60%
    16:00 +15°C° 0 mm 1 m/s 765 mmHg 67%
    17:00 +13°C° 0 mm 1 m/s 765 mmHg 74%
    18:00 +12°C° 0 mm 1 m/s 765 mmHg 82%
    19:00 +12°C° 0 mm 1 m/s 765 mmHg 82%
    20:00 +12°C° 0 mm 1 m/s 765 mmHg 83%
    21:00 +12°C° 0 mm 1 m/s 765 mmHg 84%
    22:00 +12°C° 0 mm 1 m/s 765 mmHg 86%
    23:00 +12°C° 0 mm 1 m/s 765 mmHg 88%
    Mostrar mais